Location: Sternwarte-Kraichtal
(49.1689°N, 8.6996°E)
Time: 20:38:09
(UTC+02:00)

Vanguard 2 Rocket - Pass Details

Date: 27 May 2022
Orbit: 553 x 3323 km, 32.9° (Epoch: 02 July)

Event Time Altitude Azimuth Distance (km) Brightness Sun altitude
Rises 17:32:11 0° 259° (W) 7,085 12.5 33.9°
Reaches altitude 10° 17:37:50 10° 253° (WSW) 5,790 12.4 33.0°
Maximum altitude 17:51:56 36° 196° (SSW) 3,062 10.1 30.7°
Drops below altitude 10° 18:00:59 10° 134° (SE) 3,716 9.7 29.2°
Sets 18:03:46 0° 125° (SE) 4,370 10.0 28.7°
